FW1404 Weather Reports


Display with metric or nautical units.
time (UTC)temp
F
wind
direction
speed
MPH
gust
MPH
rain 1hr
in
rain 24hr
in
rain mn
in
humidity
%
barometer
mb
20191210015156 41 265 5.0 6.0 0.00 0.02 0.00 85 1011.5
20191210014657 41 268 5.0 5.0 0.00 0.02 0.00 85 1011.4
20191210014156 41 270 2.0 12.0 0.00 0.02 0.00 85 1011.3
20191210013657 0 253 12.0 12.0 0.00 0.02 0.00 1011.1
20191210013155 41 279 9.0 9.0 0.00 0.02 0.00 85 1011.0
20191210012656 41 232 4.0 10.0 0.00 0.02 0.00 85 1010.9
20191210012153 41 284 4.0 16.0 0.00 0.02 0.00 85 1010.8
20191210011654 41 242 7.0 16.0 0.00 0.02 0.00 85 1010.5
20191210011153 41 275 3.0 14.0 0.00 0.02 0.00 86 1010.4
20191210010655 41 292 8.0 14.0 0.00 0.02 0.00 88 1010.2
20191210010154 41 320 6.0 10.0 0.00 0.02 0.00 88 1010.1
20191210005656 41 286 4.0 14.0 0.00 0.02 0.00 88 1009.9
20191210005153 42 275 10.0 16.0 0.00 0.02 0.00 88 1009.9
20191210004654 0 262 9.0 16.0 0.00 0.02 0.00 1009.6
20191210004153 42 276 10.0 14.0 0.00 0.02 0.00 88 1009.5
20191210003654 42 280 5.0 12.0 0.00 0.02 0.00 88 1009.4
20191210003153 42 299 1.0 15.0 0.00 0.02 0.00 88 1009.1
20191210002656 42 276 10.0 15.0 0.00 0.02 0.00 88 1009.2
20191210002152 42 266 6.0 11.0 0.00 0.02 0.00 88 1009.1
20191210001655 42 266 7.0 13.0 0.00 0.02 0.00 88 1008.9
20191210001154 42 273 8.0 13.0 0.00 0.02 0.00 88 1008.7
20191210000655 42 249 8.0 20.0 0.00 0.02 0.00 88 1008.6
20191210000154 42 262 15.0 20.0 0.00 0.02 0.00 88 1008.4
20191209235654 42 238 7.0 7.0 0.00 0.02 0.00 88 1008.4
20191209235153 42 218 4.0 10.0 0.01 0.02 0.00 88 1008.1
20191209234653 42 246 6.0 10.0 0.01 0.02 0.00 88 1008.0
20191209234151 42 239 6.0 9.0 0.01 0.02 0.00 88 1007.8
20191209233652 42 275 3.0 9.0 0.01 0.02 0.00 88 1007.8
20191209233152 42 239 5.0 9.0 0.01 0.02 0.00 88 1007.8
20191209232656 42 235 8.0 9.0 0.01 0.02 0.00 88 1007.7
20191209232153 42 238 7.0 12.0 0.01 0.02 0.00 88 1007.6
20191209231652 42 244 7.0 12.0 0.01 0.02 0.00 88 1007.6
20191209231157 42 198 9.0 10.0 0.01 0.02 0.00 88 1007.5
20191209230652 42 232 7.0 10.0 0.01 0.02 0.00 88 1007.3
20191209230151 42 253 6.0 9.0 0.01 0.02 0.00 88 1007.3
20191209225650 42 237 6.0 9.0 0.01 0.02 0.02 88 1007.2
20191209225151 42 234 7.0 9.0 0.00 0.01 0.01 88 1007.1
20191209224651 42 241 7.0 7.0 0.01 0.01 0.01 88 1007.0
20191209224148 42 241 7.0 7.0 0.01 0.01 0.01 88 1006.8
20191209223650 0 258 10.0 10.0 0.01 0.01 0.01 1006.6
20191209223148 0 258 10.0 10.0 0.01 0.01 0.01 1006.5
20191209222647 42 283 7.0 10.0 0.01 0.01 0.01 88 1006.4
20191209222145 42 308 8.0 16.0 0.01 0.01 0.01 88 1006.4
20191209221643 42 256 13.0 16.0 0.01 0.01 0.01 88 1006.2
20191209221153 42 227 7.0 9.0 0.01 0.01 0.01 88 1006.2
20191209220642 42 231 12.0 16.0 0.01 0.01 0.01 88 1006.1
20191209220143 42 245 14.0 16.0 0.01 0.01 0.01 88 1005.9
20191209215645 42 245 7.0 12.0 0.01 0.01 0.01 82 1005.8
20191209215144 42 266 7.0 12.0 0.01 0.01 0.01 82 1005.8
20191209214644 0 0.0 0.0 0.00 0.00 0.00 1005.7
20191209214141 0 0.0 0.0 0.00 0.00 0.00 1005.6
20191209213639 0 0.0 0.0 0.00 0.00 0.00 1005.4
20191209213137 0 0.0 0.0 0.00 0.00 0.00 1005.3
20191209212634 0 0.0 0.0 0.00 0.00 0.00 1005.2
20191209212134 0 0.0 0.0 0.00 0.00 0.00 1005.2
20191209211633 0 0.0 0.0 0.00 0.00 0.00 1005.1
20191209211130 0 0.0 0.0 0.00 0.00 0.00 1005.1
20191209210631 44 206 9.0 16.0 0.00 0.00 0.00 82 1005.0
20191209210129 44 206 9.0 16.0 0.00 0.00 0.00 82 1005.1
20191209205628 44 249 11.0 14.0 0.00 0.00 0.00 82 1004.9
20191209205127 44 211 11.0 16.0 0.00 0.00 0.00 81 1004.8
20191209204628 44 241 10.0 16.0 0.00 0.00 0.00 81 1004.7
20191209204126 44 217 7.0 15.0 0.00 0.00 0.00 78 1004.5
20191209203627 44 221 11.0 15.0 0.00 0.00 0.00 78 1004.5
20191209203126 44 235 9.0 16.0 0.00 0.00 0.00 78 1004.5
20191209202629 44 211 10.0 16.0 0.00 0.00 0.00 78 1004.4
20191209202125 44 228 11.0 15.0 0.00 0.00 0.00 78 1004.3
20191209201627 44 234 9.0 14.0 0.00 0.00 0.00 78 1004.2
20191209201125 44 224 9.0 12.0 0.00 0.00 0.00 78 1004.1
20191209200627 44 218 10.0 13.0 0.00 0.00 0.00 78 1004.0
20191209194124 44 211 9.0 14.0 0.00 0.00 0.00 77 1003.5
20191209193625 44 214 6.0 14.0 0.00 0.00 0.00 77 1003.3
20191209193124 44 214 8.0 13.0 0.00 0.00 0.00 77 1003.2
20191209192626 44 207 11.0 14.0 0.00 0.00 0.00 77 1003.2
20191209192126 44 206 9.0 14.0 0.00 0.00 0.00 78 1003.1
20191209191627 44 222 9.0 15.0 0.00 0.00 0.00 78 1003.1
20191209191126 44 239 13.0 15.0 0.00 0.00 0.00 78 1003.0
20191209190628 43 203 10.0 16.0 0.00 0.00 0.00 78 1002.8
20191209190125 43 207 13.0 17.0 0.00 0.00 0.00 78 1002.9
20191209185625 43 204 12.0 17.0 0.00 0.00 0.00 78 1002.7
20191209185123 43 177 12.0 15.0 0.00 0.00 0.00 78 1002.7
20191209184625 43 194 8.0 12.0 0.00 0.00 0.00 78 1002.7
20191209184123 43 191 8.0 14.0 0.00 0.00 0.00 78 1002.6
20191209183624 43 203 9.0 14.0 0.00 0.00 0.00 78 1002.6
20191209183123 43 173 8.0 14.0 0.00 0.00 0.00 77 1002.6
20191209182624 43 222 9.0 12.0 0.00 0.00 0.00 78 1002.5
20191209182123 43 177 6.0 11.0 0.00 0.00 0.00 77 1002.5
20191209181625 43 182 9.0 11.0 0.00 0.00 0.00 77 1002.4
20191209181123 43 167 6.0 12.0 0.00 0.00 0.00 77 1002.3
20191209180624 43 177 9.0 12.0 0.00 0.00 0.00 76 1002.3
20191209180122 43 203 6.0 9.0 0.00 0.00 0.00 76 1002.2
20191209175624 44 217 7.0 9.0 0.00 0.00 0.00 76 1002.2
20191209175122 44 204 8.0 10.0 0.00 0.00 0.00 76 1002.1
20191209174624 44 218 6.0 10.0 0.00 0.00 0.00 76 1002.1
20191209174122 44 213 6.0 11.0 0.00 0.00 0.00 76 1002.0
20191209173623 44 194 8.0 11.0 0.00 0.00 0.00 75 1001.9
20191209173121 44 193 7.0 10.0 0.00 0.00 0.00 75 1001.9
20191209172623 44 201 7.0 9.0 0.00 0.00 0.00 75 1001.8
20191209172121 44 206 5.0 14.0 0.00 0.00 0.00 75 1001.8
20191209171623 44 184 8.0 14.0 0.00 0.00 0.00 74 1001.8
20191209171121 44 200 7.0 11.0 0.00 0.00 0.00 74 1001.7
20191209170623 44 194 8.0 11.0 0.00 0.00 0.00 74 1001.6
20191209170121 44 179 8.0 10.0 0.00 0.00 0.00 74 1001.5
20191209165623 44 193 8.0 11.0 0.00 0.00 0.00 74 1001.5
20191209165121 45 189 10.0 12.0 0.00 0.00 0.00 74 1001.6
20191209164623 45 203 6.0 12.0 0.00 0.00 0.00 74 1001.6
20191209164120 45 197 9.0 17.0 0.00 0.00 0.00 73 1001.5
20191209163622 45 196 13.0 17.0 0.00 0.00 0.00 73 1001.4
20191209163120 45 193 8.0 15.0 0.00 0.00 0.00 73 1001.4
20191209162622 45 184 8.0 17.0 0.00 0.00 0.00 73 1001.4
20191209162120 45 198 11.0 17.0 0.00 0.00 0.00 73 1001.3
20191209161621 45 206 11.0 15.0 0.00 0.00 0.00 72 1001.2
20191209161120 45 173 10.0 14.0 0.00 0.00 0.00 72 1001.2
20191209160621 45 198 9.0 12.0 0.00 0.00 0.00 72 1001.2
20191209160120 45 184 9.0 12.0 0.00 0.00 0.00 72 1001.3
20191209155621 45 206 7.0 13.0 0.00 0.00 0.00 72 1001.2
20191209155119 45 187 9.0 13.0 0.00 0.00 0.00 72 1001.1
20191209154622 45 211 8.0 13.0 0.00 0.01 0.00 72 1001.1
20191209154120 45 213 7.0 11.0 0.00 0.01 0.00 72 1001.1
20191209153623 45 189 8.0 14.0 0.00 0.01 0.00 72 1001.1
20191209153120 45 165 11.0 14.0 0.00 0.01 0.00 72 1001.0
20191209152621 45 176 10.0 13.0 0.00 0.01 0.00 72 1001.0
20191209152119 45 156 8.0 11.0 0.00 0.01 0.00 72 1001.0
20191209151622 45 214 7.0 11.0 0.00 0.01 0.00 72 1000.9
20191209151120 45 201 7.0 11.0 0.00 0.01 0.00 72 1000.9
20191209150622 45 193 8.0 11.0 0.00 0.01 0.00 71 1000.9
20191209150120 46 176 6.0 9.0 0.00 0.01 0.00 71 1000.8
20191209145621 46 172 7.0 11.0 0.00 0.01 0.00 71 1000.7
20191209145122 46 198 8.0 14.0 0.00 0.01 0.00 70 1000.7
20191209144622 46 204 8.0 14.0 0.00 0.01 0.00 70 1000.6
20191209144119 46 204 6.0 9.0 0.00 0.01 0.00 70 1000.6
20191209143621 46 197 5.0 11.0 0.00 0.01 0.00 70 1000.6
20191209143119 47 173 7.0 12.0 0.00 0.01 0.00 70 1000.5
20191209142623 47 187 7.0 18.0 0.00 0.01 0.00 69 1000.5
20191209142120 47 190 10.0 18.0 0.00 0.01 0.00 69 1000.6
20191209141621 47 187 7.0 14.0 0.00 0.01 0.00 70 1000.6
20191209141120 47 203 11.0 15.0 0.00 0.01 0.00 70 1000.5
20191209140624 47 200 9.0 15.0 0.00 0.01 0.00 70 1000.6
20191209140120 47 206 8.0 11.0 0.00 0.01 0.00 70 1000.6
20191209135622 47 180 6.0 12.0 0.00 0.01 0.00 70 1000.7
20191209135119 47 194 10.0 12.0 0.00 0.01 0.00 70 1000.8
20191209134620 47 196 6.0 11.0 0.00 0.01 0.00 70 1000.7
20191209134118 47 191 8.0 11.0 0.00 0.01 0.00 70 1000.7
20191209133620 47 190 10.0 14.0 0.00 0.01 0.00 70 1000.6
20191209133118 47 207 13.0 14.0 0.00 0.01 0.00 71 1000.6
20191209132620 47 184 14.0 14.0 0.00 0.01 0.00 70 1000.6
20191209132133 47 193 8.0 13.0 0.00 0.01 0.00 70 1000.5
20191209131633 47 197 10.0 14.0 0.00 0.01 0.00 71 1000.5
20191209131132 47 214 9.0 15.0 0.00 0.01 0.00 71 1000.7
20191209130634 47 198 10.0 15.0 0.00 0.01 0.00 71 1000.7
20191209130135 47 213 9.0 15.0 0.00 0.01 0.00 71 1000.6
20191209125634 47 217 9.0 14.0 0.00 0.01 0.00 70 1000.7
20191209125135 47 206 10.0 14.0 0.00 0.01 0.00 69 1000.7
20191209124635 47 197 10.0 16.0 0.00 0.01 0.00 68 1000.6
20191209124134 48 191 12.0 16.0 0.00 0.01 0.00 68 1000.7
20191209123634 48 187 11.0 19.0 0.00 0.01 0.00 67 1000.7
20191209123134 48 198 13.0 19.0 0.00 0.01 0.00 67 1000.6
20191209122627 48 177 11.0 19.0 0.00 0.01 0.00 67 1000.7
20191209122117 48 201 6.0 19.0 0.00 0.01 0.00 69 1000.7
20191209121617 48 193 7.0 19.0 0.00 0.01 0.00 68 1000.7
20191209121114 48 173 13.0 16.0 0.00 0.01 0.00 69 1000.6
20191209120616 48 196 8.0 15.0 0.00 0.01 0.00 70 1000.8
20191209120115 47 194 12.0 18.0 0.00 0.01 0.00 71 1000.7
20191209115617 47 215 14.0 18.0 0.00 0.01 0.00 70 1000.8
20191209115114 47 198 10.0 16.0 0.00 0.01 0.00 70 1000.9
20191209114617 47 190 12.0 16.0 0.00 0.01 0.00 71 1000.9
20191209114115 47 162 10.0 15.0 0.00 0.01 0.00 71 1000.8
20191209113618 47 220 11.0 17.0 0.00 0.01 0.00 72 1000.7
20191209113115 47 186 8.0 17.0 0.00 0.01 0.00 72 1000.9
20191209112617 47 189 11.0 17.0 0.00 0.01 0.00 73 1000.8
20191209112115 47 172 10.0 17.0 0.00 0.01 0.00 73 1000.6
20191209111617 46 180 12.0 16.0 0.00 0.01 0.00 74 1000.8
20191209111115 46 207 7.0 11.0 0.00 0.01 0.00 74 1001.0
20191209110615 46 210 6.0 15.0 0.00 0.01 0.00 74 1000.9
20191209110113 46 197 10.0 15.0 0.00 0.01 0.00 74 1000.7
20191209105615 46 200 9.0 12.0 0.00 0.01 0.00 74 1000.7
20191209105113 46 198 7.0 11.0 0.00 0.01 0.00 75 1000.8
20191209104614 46 193 8.0 11.0 0.00 0.01 0.00 75 1000.8
20191209104113 46 213 7.0 14.0 0.00 0.01 0.00 75 1000.9
20191209103614 46 190 6.0 14.0 0.00 0.01 0.00 75 1000.9
20191209103113 46 218 5.0 9.0 0.00 0.01 0.00 75 1000.8
20191209102616 46 204 6.0 9.0 0.00 0.01 0.00 76 1000.8
20191209102115 45 203 6.0 11.0 0.00 0.01 0.00 77 1000.7
20191209101615 45 211 6.0 11.0 0.00 0.01 0.00 77 1000.9
20191209101113 45 215 6.0 10.0 0.00 0.01 0.00 77 1001.0
20191209100615 45 213 6.0 13.0 0.00 0.01 0.00 76 1001.2
20191209100113 45 232 6.0 13.0 0.00 0.01 0.00 76 1001.3
20191209095614 45 210 5.0 12.0 0.00 0.01 0.00 76 1001.3
20191209095112 46 198 7.0 15.0 0.00 0.01 0.00 77 1001.2
20191209094614 46 224 11.0 15.0 0.00 0.01 0.00 76 1001.3
20191209094111 46 217 11.0 15.0 0.00 0.01 0.00 77 1001.3
20191209093612 47 245 9.0 17.0 0.00 0.01 0.00 77 1001.3
20191209093111 47 221 12.0 17.0 0.00 0.01 0.00 77 1001.3
20191209092612 46 214 8.0 21.0 0.00 0.01 0.00 77 1001.3
20191209092111 46 220 7.0 21.0 0.00 0.01 0.00 76 1001.4
20191209091111 46 220 9.0 15.0 0.00 0.01 0.00 74 1001.4
20191209090614 46 218 9.0 16.0 0.00 0.01 0.00 75 1001.3
20191209090112 46 194 10.0 16.0 0.00 0.01 0.00 75 1001.3
20191209085613 46 204 9.0 14.0 0.00 0.01 0.00 76 1001.2
20191209085112 45 217 9.0 16.0 0.00 0.01 0.00 76 1001.1
20191209084613 46 204 12.0 16.0 0.00 0.01 0.00 76 1001.0
20191209084111 45 210 9.0 16.0 0.00 0.01 0.00 76 1001.0
20191209083613 45 187 8.0 15.0 0.00 0.01 0.00 78 1001.0
20191209083111 45 190 10.0 12.0 0.00 0.01 0.00 78 1001.1
20191209082612 45 184 7.0 12.0 0.00 0.01 0.00 78 1001.1
20191209082113 45 215 8.0 15.0 0.00 0.01 0.00 78 1001.1
20191209081612 45 198 9.0 15.0 0.00 0.01 0.00 79 1001.0
20191209081111 44 207 7.0 13.0 0.00 0.01 0.00 79 1001.0
20191209080612 44 204 6.0 13.0 0.00 0.01 0.00 79 1001.0
20191209080111 44 213 7.0 10.0 0.00 0.01 0.00 79 1001.0
20191209075613 44 235 7.0 10.0 0.00 0.01 0.00 79 1000.9
20191209075110 44 204 7.0 13.0 0.00 0.01 0.00 80 1000.9
20191209074612 44 197 9.0 13.0 0.00 0.01 0.00 80 1001.0
20191209074111 43 191 8.0 13.0 0.00 0.01 0.00 80 1000.9
20191209073613 43 213 7.0 10.0 0.00 0.01 0.00 80 1000.9
20191209073110 43 210 7.0 10.0 0.00 0.01 0.00 80 1000.9
20191209072612 43 193 6.0 10.0 0.00 0.01 0.00 80 1001.0
20191209072110 43 191 7.0 10.0 0.00 0.01 0.00 80 1000.9
20191209071611 43 207 5.0 9.0 0.00 0.01 0.00 79 1000.8
20191209071101 43 214 6.0 7.0 0.00 0.01 0.00 79 1000.8
20191209070602 43 217 5.0 13.0 0.00 0.01 0.00 79 1000.7
20191209070101 43 221 8.0 13.0 0.00 0.01 0.00 79 1000.6
20191209065603 43 231 8.0 12.0 0.00 0.01 0.00 79 1000.6
20191209065101 43 214 5.0 12.0 0.00 0.01 0.00 78 1000.5
20191209064603 43 245 9.0 12.0 0.00 0.01 0.00 78 1000.5
20191209064052 43 225 7.0 13.0 0.00 0.01 0.00 77 1000.3
20191209063544 44 210 9.0 13.0 0.00 0.01 0.00 77 1000.4
20191209063046 44 208 6.0 14.0 0.00 0.01 0.00 77 1000.5
20191209062537 44 234 11.0 14.0 0.00 0.01 0.00 76 1000.4
20191209062033 44 231 8.0 13.0 0.00 0.01 0.00 76 1000.5
20191209061533 44 201 9.0 13.0 0.00 0.01 0.00 76 1000.5
20191209061032 44 194 8.0 12.0 0.00 0.01 0.00 76 1000.5
20191209060532 44 191 9.0 12.0 0.00 0.01 0.00 76 1000.4
20191209060032 44 194 9.0 13.0 0.00 0.01 0.00 76 1000.4
20191209055532 44 206 9.0 13.0 0.00 0.01 0.00 75 1000.5
20191209055033 44 206 7.0 14.0 0.00 0.01 0.00 75 1000.3
20191209054532 44 218 11.0 14.0 0.00 0.01 0.00 75 1000.5
20191209054032 44 235 6.0 11.0 0.00 0.01 0.00 76 1000.5
20191209053531 44 231 6.0 11.0 0.00 0.01 0.00 76 1000.4
20191209053032 45 207 6.0 12.0 0.00 0.01 0.00 76 1000.4
20191209052532 45 227 9.0 14.0 0.00 0.01 0.00 76 1000.2
20191209052035 45 220 6.0 14.0 0.00 0.01 0.00 76 1000.4
20191209051533 45 217 9.0 12.0 0.00 0.01 0.00 77 1000.3
20191209051033 45 221 7.0 13.0 0.00 0.01 0.00 78 1000.2
20191209050533 45 217 10.0 14.0 0.00 0.01 0.00 78 1000.2
20191209050032 45 241 9.0 17.0 0.00 0.01 0.00 78 1000.3
20191209045534 45 262 12.0 17.0 0.00 0.01 0.00 78 1000.2
20191209045034 45 215 11.0 17.0 0.00 0.01 0.00 79 1000.2
20191209044532 45 218 9.0 16.0 0.00 0.01 0.00 79 1000.2
20191209044033 45 234 10.0 16.0 0.00 0.01 0.00 80 1000.2
20191209043531 45 211 10.0 16.0 0.00 0.01 0.00 80 1000.2
20191209043033 44 228 8.0 16.0 0.00 0.01 0.00 81 1000.1
20191209042532 44 208 9.0 17.0 0.00 0.01 0.00 81 1000.1
20191209042032 45 224 12.0 17.0 0.00 0.01 0.00 81 1000.0
20191209041533 45 210 11.0 17.0 0.00 0.01 0.00 81 999.9
20191209041033 44 225 10.0 17.0 0.00 0.01 0.00 81 999.7
20191209040532 44 197 10.0 14.0 0.00 0.01 0.00 82 999.8
20191209040031 44 204 8.0 15.0 0.00 0.01 0.00 82 999.8
20191209035533 44 207 8.0 15.0 0.00 0.01 0.00 82 999.6
20191209035032 45 198 8.0 14.0 0.00 0.01 0.00 82 999.5
20191209034531 45 186 7.0 14.0 0.00 0.01 0.00 83 999.4
20191209034034 45 221 8.0 14.0 0.00 0.01 0.00 83 999.5
20191209033531 45 213 10.0 14.0 0.00 0.01 0.00 83 999.5
20191209033033 45 214 11.0 12.0 0.00 0.01 0.00 83 999.5
20191209032531 45 232 8.0 17.0 0.00 0.01 0.00 83 999.4
20191209032032 45 214 8.0 17.0 0.00 0.01 0.00 83 999.5
20191209031534 45 206 8.0 14.0 0.00 0.01 0.00 83 999.4
20191209031031 45 208 8.0 13.0 0.00 0.01 0.00 83 999.6
20191209030533 45 218 9.0 14.0 0.00 0.01 0.00 83 999.5
20191209030031 45 217 10.0 14.0 0.00 0.01 0.00 83 999.5
20191209025533 45 227 9.0 16.0 0.00 0.01 0.00 83 999.5
20191209025034 45 210 10.0 16.0 0.00 0.01 0.00 84 999.4
20191209024534 46 222 7.0 12.0 0.00 0.01 0.00 83 999.4
20191209024035 46 222 7.0 12.0 0.00 0.01 0.00 83 999.4
20191209023532 46 193 8.0 15.0 0.00 0.01 0.00 83 999.5
20191209023033 46 207 10.0 16.0 0.00 0.01 0.00 82 999.4
20191209022532 46 207 11.0 17.0 0.00 0.01 0.00 82 999.4
20191209022032 46 214 13.0 17.0 0.00 0.01 0.00 82 999.4
20191209021532 46 200 9.0 17.0 0.00 0.01 0.00 83 999.4
20191209021034 46 227 10.0 18.0 0.00 0.01 0.00 83 999.2
20191209020522 46 197 11.0 18.0 0.00 0.01 0.00 83 999.3
20191209020009 46 215 10.0 18.0 0.00 0.01 0.00 82 999.3
20191209015505 46 224 14.0 18.0 0.00 0.01 0.00 82 999.3